Theta_e
313 314 314 314 314 315 314 314 315 315 315 315 315 315 315 314 315 313 313 313 313 314 314 315 315 315 315 315 316 316 315 313 312 312 311 317 320 326 326 324 326 329 327 311 312 312 311 311 310 312 310 309 307 306 309 309 309 307 301 298 296 298 298 302 301 302 305 303 305 307 307 306 304 307 309 313 311 310 310 312 324 326 326 330 333 341 343 341
313 314 314 314 314 315 315 315 314 315 315 315 315 315 315 316 315 315 314 313 313 314 314 314 314 314 315 315 315 315 313 313 312 312 312 322 325 324 322 331 327 327 322 308 309 310 310 308 309 310 308 305 309 305 309 305 310 303 301 299 296 299 301 305 305 306 305 303 305 305 307 306 305 306 309 306 307 310 308 309 319 326 330 335 340 341 342 343
313 314 313 314 314 314 314 314 315 315 315 315 315 315 315 315 315 315 316 315 314 314 313 314 314 314 315 315 315 315 314 312 314 312 316 326 327 324 326 326 328 327 310 307 310 311 310 309 310 308 307 304 306 303 306 304 307 305 301 297 298 303 304 305 307 306 307 306 305 304 306 306 307 307 311 307 307 309 307 305 313 321 327 332 336 339 340 341
313 313 313 313 313 314 314 314 314 314 314 315 315 315 314 315 315 315 315 315 315 314 314 314 314 314 315 314 315 315 314 313 309 313 320 325 324 329 326 327 327 325 312 310 313 313 313 311 310 309 305 303 304 306 303 305 303 305 301 297 300 304 303 305 307 306 306 307 305 305 306 305 306 308 309 307 306 307 308 310 308 325 330 333 336 338 340 340
313 313 313 313 314 314 314 314 314 314 314 314 314 314 314 315 315 316 315 316 314 315 314 314 314 314 314 315 314 315 312 306 307 316 320 326 328 325 331 326 329 314 310 311 314 314 313 310 308 307 305 301 303 304 303 306 307 305 301 303 303 304 302 306 307 307 306 306 305 305 303 303 308 308 306 306 303 304 308 319 316 325 331 333 336 337 340 339
312 312 313 313 313 313 314 314 314 314 314 314 315 314 314 315 315 315 315 315 315 314 315 314 314 314 314 314 314 312 310 295 310 314 331 330 329 328 328 332 331 317 311 311 312 312 309 307 306 302 302 301 301 300 304 305 307 299 303 304 305 305 303 306 306 306 305 304 304 303 305 307 306 305 307 307 308 310 323 325 324 328 330 337 339 339 338 336
312 312 312 312 313 313 313 314 314 313 314 314 314 314 314 315 315 315 315 315 315 315 314 314 314 314 314 314 313 311 308 311 318 315 331 330 328 324 328 329 328 311 313 312 312 309 306 305 304 302 301 301 301 302 304 305 306 302 299 303 303 305 303 306 305 306 305 304 303 305 307 305 305 302 307 306 309 313 324 327 326 330 334 336 335 333 330 327
312 312 312 312 313 313 313 313 313 313 313 314 314 314 314 315 315 315 315 314 314 314 314 314 313 314 314 312 311 311 311 312 318 322 329 329 324 319 325 313 311 311 311 311 311 307 306 303 302 304 301 299 301 302 304 303 304 301 300 303 303 304 305 305 305 305 305 305 306 306 304 304 305 304 307 309 312 314 320 324 325 330 332 334 332 329 328 326
312 312 312 312 312 312 312 312 313 314 313 313 314 314 314 314 314 314 314 314 313 313 314 314 313 313 313 311 309 307 308 316 320 323 327 318 313 314 312 309 313 312 311 313 313 309 306 304 304 304 299 301 304 302 304 302 299 302 302 303 303 303 305 305 305 305 304 305 306 304 303 305 306 308 305 308 311 318 323 325 325 326 328 331 331 328 327 326
312 312 312 312 312 312 312 313 313 313 313 313 314 313 313 314 313 314 314 314 313 313 313 314 314 313 311 310 311 305 310 318 319 317 314 313 311 311 310 312 312 312 311 311 310 308 306 305 305 307 306 304 305 303 304 302 300 305 303 303 303 303 303 305 304 305 305 305 305 303 303 304 307 306 301 308 315 319 320 320 323 323 324 328 332 331 329 328
312 312 312 312 312 312 312 313 313 313 313 313 313 313 313 314 313 313 314 314 313 313 313 313 313 313 310 313 308 307 313 315 318 314 314 313 311 309 310 313 313 311 311 310 309 310 309 308 310 309 305 302 304 303 303 303 305 304 304 303 303 304 304 304 305 305 305 304 306 305 303 305 307 306 303 312 318 319 319 319 320 320 321 325 330 331 331 329
312 312 312 312 312 312 313 313 313 313 313 313 313 313 313 313 313 313 313 314 314 314 313 313 312 312 312 311 310 312 315 314 315 315 314 313 311 312 314 315 314 312 312 309 308 309 309 310 310 307 300 308 300 303 302 305 304 304 303 299 301 303 301 303 302 304 305 303 306 306 302 301 304 302 307 315 318 317 319 317 317 322 325 326 328 326 326 324
312 312 312 312 312 312 312 312 313 312 313 313 313 313 313 313 313 313 313 313 314 314 314 313 313 313 313 308 314 319 316 316 316 316 315 315 313 315 316 316 314 313 313 311 307 310 310 310 309 305 307 305 304 299 304 307 304 304 303 300 298 299 298 303 304 304 303 304 305 305 293 297 302 305 310 315 316 315 315 316 317 319 321 323 325 324 324 324
312 312 312 312 312 312 312 312 312 312 312 312 312 313 312 312 312 313 313 313 315 314 314 314 314 314 313 311 315 315 316 318 314 313 314 315 313 313 314 314 315 315 315 313 312 312 310 311 309 307 309 305 302 309 305 304 304 298 301 301 296 295 295 303 303 304 301 305 305 305 294 297 302 305 309 312 313 314 312 313 315 318 319 324 324 323 324 325
312 312 312 312 312 312 312 312 312 312 312 312 312 312 312 312 312 313 313 313 314 315 314 313 313 311 312 315 317 317 335 318 310 311 313 311 311 310 309 312 312 313 314 312 311 311 311 310 308 304 302 307 306 302 299 300 301 300 296 293 297 295 297 302 304 303 299 304 306 303 295 297 303 306 309 310 313 313 313 313 317 319 320 322 322 321 321 322
312 312 312 312 312 312 312 312 312 312 312 312 312 311 312 313 313 313 313 313 314 314 315 311 314 312 311 307 312 327 313 308 309 313 313 312 310 307 309 309 310 311 311 310 311 312 310 309 304 304 305 306 302 299 298 297 298 299 296 295 295 297 297 298 302 304 304 303 304 302 295 299 301 305 308 309 310 311 312 315 316 318 320 320 322 321 321 322
312 312 312 312 312 312 312 312 312 312 312 311 311 311 312 313 314 314 313 313 313 314 313 312 317 318 307 313 315 307 307 311 315 312 312 313 311 310 309 308 307 308 309 310 310 309 309 305 306 305 305 301 302 300 294 293 295 296 298 294 298 297 298 295 301 304 305 303 300 302 298 299 303 306 307 308 308 309 312 312 316 316 317 317 318 321 319 319
312 312 312 312 312 312 312 312 311 311 311 311 310 310 310 313 313 312 312 312 316 316 314 316 314 311 307 315 306 307 311 312 312 312 311 313 313 311 309 307 308 308 307 306 308 304 307 302 304 299 302 301 300 298 293 290 295 295 297 295 296 298 299 298 298 302 304 303 300 301 299 300 302 305 306 307 308 307 308 313 313 316 317 317 318 317 320 321
312 312 312 312 312 312 312 311 311 311 311 310 310 311 311 311 312 315 315 314 310 308 303 307 308 298 297 308 312 312 312 315 313 313 309 310 312 312 310 310 309 305 302 302 302 303 305 302 304 299 297 299 298 298 296 299 300 298 298 298 298 296 297 297 301 304 303 300 298 299 298 299 302 303 305 307 308 307 307 310 314 317 318 318 318 317 319 321
312 312 312 312 312 311 311 311 310 310 310 310 316 315 317 316 314 313 315 315 309 307 306 309 309 310 308 309 310 315 317 315 308 311 311 312 310 309 307 308 306 305 303 300 302 303 305 298 296 296 298 301 306 305 304 303 302 301 300 299 298 298 298 301 301 303 305 301 300 300 300 300 302 304 305 307 308 307 307 308 309 315 313 315 315 316 317 319
312 312 312 312 312 312 311 311 311 310 309 310 314 316 312 307 303 302 308 312 315 313 309 310 310 307 307 311 312 311 307 307 310 309 311 314 311 307 304 305 302 300 301 302 303 308 305 297 297 300 303 305 305 306 306 304 303 300 299 298 297 298 296 300 300 304 305 303 299 301 301 301 302 304 305 307 307 305 306 306 310 308 313 313 314 315 318 319
311 312 312 312 312 311 311 311 311 310 310 310 313 313 316 311 312 314 311 302 309 314 311 311 313 308 311 312 314 313 311 305 305 308 312 312 308 302 304 302 300 298 302 303 303 302 298 295 299 303 306 306 305 305 304 302 300 300 297 297 295 296 300 302 302 304 304 302 298 301 298 300 302 303 305 306 306 308 308 309 309 310 309 310 313 314 318 319
311 311 312 312 312 311 311 310 310 310 313 315 313 314 314 315 317 317 315 308 306 313 309 308 307 308 308 313 314 313 306 304 302 307 309 310 306 303 304 300 299 300 301 302 297 298 295 297 302 304 306 304 303 303 302 301 301 297 298 295 293 297 296 294 301 302 304 302 299 300 298 300 303 305 305 307 306 308 310 309 310 311 310 310 311 314 317 319
311 311 311 312 312 312 310 310 310 311 311 314 315 313 318 317 317 317 312 305 304 310 310 309 308 307 307 307 312 310 305 306 306 305 312 308 303 306 303 302 300 299 297 301 300 297 296 302 305 305 304 302 300 300 300 298 296 299 298 296 296 297 298 297 298 302 305 305 305 300 298 297 300 300 301 305 307 308 307 308 308 309 309 313 317 317 320 319
310 310 311 312 312 312 312 310 311 314 318 316 312 317 319 318 320 318 309 306 306 304 315 310 309 308 309 315 315 306 307 308 309 310 311 308 304 304 302 305 302 298 299 301 300 298 298 305 307 303 301 302 300 297 299 300 296 297 300 299 298 300 298 299 301 300 298 296 302 299 291 291 298 300 300 303 304 304 307 306 306 307 309 309 310 319 321 320
310 310 311 311 311 311 310 307 314 316 315 314 317 318 318 318 321 320 311 302 295 303 308 299 309 302 313 307 311 308 309 303 310 311 311 310 311 306 305 301 303 297 301 300 300 300 300 305 305 302 301 300 300 298 300 301 297 295 296 302 301 300 300 300 298 299 293 290 299 304 291 288 297 297 299 301 302 303 306 306 306 307 308 309 310 312 319 319
310 310 310 311 311 310 310 313 319 314 310 311 318 320 318 318 324 319 307 297 291 304 298 304 303 304 311 310 310 309 294 300 311 310 309 311 306 311 301 301 302 302 303 304 300 296 301 301 301 302 301 299 298 296 300 300 297 294 303 301 301 300 299 299 298 298 296 300 302 300 297 291 290 296 301 302 301 302 303 305 306 306 307 309 311 311 314 319
310 309 310 311 312 310 314 315 312 309 312 314 318 317 317 321 322 321 304 285 286 306 299 301 304 313 309 310 310 303 304 308 301 306 311 311 309 306 303 300 300 300 302 301 290 301 302 301 300 299 299 297 296 299 303 303 298 298 302 302 300 300 301 300 298 296 297 295 291 295 298 291 290 296 301 301 299 301 302 304 304 305 306 308 309 309 311 313
309 309 309 310 311 311 312 312 314 310 313 315 316 317 319 322 316 309 296 284 300 301 314 300 313 309 307 310 306 306 305 307 300 307 311 311 310 307 300 301 302 301 303 302 295 300 302 301 302 301 298 296 299 301 302 303 298 303 303 303 302 302 301 301 298 296 297 293 288 293 297 289 290 296 297 300 298 299 301 303 304 305 306 307 307 309 315 312
308 308 308 309 311 312 311 315 313 315 316 315 318 320 321 318 311 297 289 282 304 294 303 304 302 301 306 302 302 305 302 305 305 307 308 305 307 308 306 308 303 301 300 301 299 300 303 307 306 301 299 300 302 302 303 302 303 304 303 300 300 300 298 299 298 297 294 287 290 296 298 295 287 294 296 296 297 299 302 303 305 306 307 307 310 309 310 310
308 308 307 309 310 317 319 313 318 320 319 321 322 318 314 308 298 291 283 292 301 300 304 302 300 305 301 299 297 303 302 304 303 304 302 305 303 305 304 301 305 300 299 300 298 299 301 302 300 302 303 302 302 299 303 303 303 302 299 297 296 295 298 296 296 297 287 285 292 296 296 297 286 291 297 299 303 304 302 304 304 305 306 307 310 309 310 310
307 307 307 309 314 318 310 312 319 322 322 322 320 314 308 294 299 287 287 307 290 297 297 298 302 301 300 301 299 299 298 301 303 302 299 299 299 298 298 294 299 291 291 293 293 299 297 298 301 301 304 301 299 297 298 300 301 298 297 295 290 287 288 285 290 285 286 285 293 296 296 291 290 294 298 300 301 303 305 304 305 305 306 308 308 309 309 310
306 306 307 309 313 314 315 318 323 323 325 323 316 310 299 290 284 293 294 299 291 299 297 302 300 300 301 299 297 300 302 297 302 302 302 301 298 299 302 299 300 297 289 296 294 294 295 300 299 300 301 302 300 293 293 293 297 296 294 293 289 284 283 280 285 287 287 292 297 296 297 290 295 296 300 300 302 304 306 307 307 307 308 309 308 309 309 312
305 307 311 316 314 316 318 326 324 323 321 319 311 303 296 287 287 300 295 296 296 302 301 299 301 301 300 296 298 300 296 300 301 300 301 298 297 296 298 301 301 299 297 297 291 293 287 290 295 298 295 302 300 297 297 296 296 296 298 295 291 289 285 280 283 281 283 286 291 296 290 287 288 292 302 304 304 305 306 305 307 309 309 310 308 308 311 312
305 311 317 320 320 320 321 320 324 326 323 312 303 298 288 288 293 292 293 295 298 301 298 302 298 298 297 298 299 301 299 296 301 300 298 296 295 296 296 297 301 300 299 291 296 292 291 291 298 301 301 301 298 301 301 298 296 298 299 298 293 289 295 285 288 287 287 286 287 290 288 294 294 301 303 305 304 304 304 305 306 305 306 307 308 308 310 312
309 321 322 319 320 326 326 321 323 323 319 309 300 292 289 294 292 296 294 300 299 297 298 300 299 295 295 295 299 298 302 297 299 298 297 297 297 295 299 299 299 300 297 291 295 289 291 289 298 300 302 301 300 301 300 301 288 296 295 291 294 300 296 290 289 294 289 287 284 291 289 294 300 300 301 303 302 302 303 303 303 304 306 308 308 309 309 313
308 314 317 322 318 319 323 323 320 320 316 304 296 290 296 298 300 298 300 298 299 300 298 291 293 292 292 292 294 296 297 298 297 296 293 298 295 298 297 299 302 301 301 298 294 298 290 290 297 297 296 300 302 302 301 301 300 296 291 294 299 301 300 292 285 287 286 282 284 290 287 289 290 286 300 300 300 300 301 302 303 306 307 307 309 311 312 313
309 311 311 309 311 318 322 320 318 315 309 301 292 295 300 296 302 300 302 300 300 300 295 293 295 297 293 292 292 295 298 294 295 296 293 296 291 301 298 298 301 301 301 302 295 296 297 288 294 298 298 299 303 301 298 301 301 295 294 300 292 287 286 292 288 280 280 280 283 286 289 289 291 291 296 297 298 300 300 302 303 303 305 307 308 310 312 313
311 308 303 307 312 320 319 320 318 311 304 295 292 291 297 298 301 300 302 302 301 298 294 295 292 295 295 293 295 296 297 292 295 294 291 295 290 299 298 299 298 301 301 301 296 297 299 288 291 298 297 299 299 298 289 294 300 300 300 296 298 294 291 287 288 289 287 282 282 283 288 285 294 295 298 299 300 300 301 300 301 303 305 307 308 309 310 311
311 306 302 315 315 319 320 320 312 306 300 291 294 295 300 298 300 302 302 301 298 297 295 294 297 294 295 295 296 293 297 296 295 295 294 296 293 298 298 300 298 300 301 301 297 300 292 299 286 295 299 297 291 296 293 294 292 295 294 293 295 296 298 294 294 290 287 284 283 283 282 288 295 300 298 299 300 302 302 302 304 304 305 307 308 309 310 310
310 304 304 318 316 320 321 312 301 297 296 298 299 297 299 297 300 301 303 303 301 302 297 296 296 294 295 294 294 297 294 295 295 293 294 294 294 290 300 300 301 298 301 299 297 298 291 291 287 291 291 291 293 298 298 297 297 296 294 293 294 294 291 285 284 294 292 287 284 282 281 290 298 302 302 300 302 302 303 302 304 304 305 307 308 309 309 309
303 296 300 318 320 320 310 299 298 300 298 295 295 298 297 304 299 300 302 303 301 298 301 298 298 296 296 296 297 296 295 294 295 294 295 293 296 295 298 302 301 301 297 294 296 302 299 297 293 288 291 292 295 298 300 300 299 298 297 294 296 295 294 289 282 286 291 291 292 290 285 287 299 302 301 302 303 302 304 303 303 305 306 307 307 308 309 310
304 298 314 317 319 315 305 296 299 296 297 298 302 301 302 300 299 301 299 300 298 300 298 297 297 296 298 296 296 296 296 294 294 293 295 295 295 298 300 301 300 299 298 296 297 299 299 289 288 290 293 295 297 298 298 299 298 295 296 297 295 292 293 291 290 291 288 288 286 286 284 288 300 303 303 305 304 306 305 304 304 304 306 307 307 307 308 308
304 305 306 313 317 310 301 291 291 293 297 299 300 299 302 300 300 298 298 299 297 297 297 297 298 299 296 299 298 294 297 289 295 295 294 296 295 301 300 300 299 297 296 297 293 300 290 293 290 285 285 287 290 293 293 296 296 293 293 296 296 296 295 295 294 294 287 288 289 286 281 286 297 304 302 302 302 302 302 304 306 304 305 306 306 306 307 308
303 308 304 306 310 308 296 298 295 292 295 296 297 296 297 298 300 300 299 298 300 299 298 297 298 299 298 299 297 297 298 295 293 296 296 296 295 300 300 300 299 298 302 302 304 302 293 293 291 284 281 279 279 281 283 286 290 293 295 295 296 294 294 292 286 289 285 289 290 286 286 293 298 300 299 300 300 300 302 303 304 305 305 305 306 306 307 307
302 291 300 302 305 303 301 302 299 296 295 296 292 296 298 296 299 301 299 298 299 299 299 299 299 300 297 297 295 295 294 298 294 294 294 294 296 298 300 300 299 300 303 305 302 300 293 295 292 290 287 285 287 289 294 294 293 289 292 293 294 295 295 295 292 287 285 288 287 290 290 291 294 295 297 299 300 299 301 302 304 303 304 308 307 306 307 307
304 295 295 294 301 302 299 300 297 298 293 298 290 296 295 296 297 298 301 296 299 297 297 297 297 295 295 295 294 294 295 294 296 295 294 294 296 296 300 299 299 302 303 299 300 296 293 288 291 292 291 290 292 291 293 293 290 291 291 291 293 294 294 292 288 286 293 287 283 291 293 290 291 294 296 297 299 299 301 302 303 306 304 304 305 306 306 306
294 299 301 301 294 293 294 294 298 298 299 299 295 298 295 295 296 293 297 299 299 300 295 296 296 296 295 294 295 290 293 293 294 291 295 295 295 297 295 298 297 303 300 297 299 295 291 286 291 291 290 291 292 292 293 292 292 292 292 292 292 293 293 291 290 293 293 287 284 290 293 291 292 294 297 297 298 299 300 304 303 306 304 303 304 304 304 305
301 299 300 303 297 299 298 298 299 298 296 297 296 297 295 295 294 296 296 296 297 297 297 289 293 295 296 296 295 292 294 289 288 297 296 295 294 295 293 295 297 300 298 296 297 299 294 288 292 292 290 291 292 292 293 292 292 292 292 292 292 293 292 293 292 293 292 291 292 292 293 292 294 296 297 298 301 300 300 302 304 302 303 302 303 304 304 304
295 295 294 300 302 299 298 298 297 296 294 297 290 294 295 295 294 296 297 296 291 294 298 294 295 296 296 295 295 292 295 296 295 291 298 297 296 297 295 296 295 299 298 295 296 298 293 288 292 292 289 289 292 292 292 291 291 289 291 292 292 292 292 292 293 293 294 292 293 293 291 290 296 298 298 300 301 301 301 300 300 301 301 302 301 301 302 303
299 303 302 297 294 296 295 296 296 295 292 295 292 295 294 295 294 296 295 298 294 293 296 294 296 296 297 296 296 295 296 297 297 296 298 296 292 298 294 295 297 294 295 295 296 296 294 289 293 292 286 285 290 290 291 291 291 290 289 291 291 291 289 291 289 293 291 289 291 291 288 288 294 298 298 299 299 298 298 299 299 300 300 301 300 301 302 303
300 303 304 300 292 296 293 296 296 294 290 294 295 294 294 293 295 296 291 296 297 297 295 295 296 294 295 295 294 295 297 297 297 297 297 298 299 298 298 297 297 296 295 294 297 293 293 290 288 288 284 284 289 291 290 289 288 284 286 289 291 292 292 293 294 295 294 294 288 287 287 293 295 297 296 297 298 298 298 298 299 299 301 300 300 301 302 302
Wind_Speed
11 11 11 10 11 10 10 10 10 11 10 10 10 10 10 10 10 10 10 11 12 11 13 13 12 12 12 13 14 15 14 12 15 12 13 17 4 7 11 6 8 7 5 7 10 12 12 11 12 10 10 8 8 10 10 12 9 7 8 8 10 9 12 10 13 10 5 5 6 8 8 2 6 2 5 4 5 9 12 8 18 14 14 13 15 17 18 17
12 11 11 11 11 11 11 11 11 11 11 11 11 11 11 11 10 10 11 11 11 12 12 12 13 12 12 13 14 14 14 13 14 16 19 3 11 8 8 6 6 8 6 10 12 11 11 11 11 11 10 9 8 10 8 8 9 9 8 9 10 10 10 12 14 13 8 2 9 6 2 3 5 4 3 7 4 8 11 9 14 21 17 16 16 17 16 14
13 12 12 11 11 11 11 11 11 11 11 11 11 11 11 11 11 11 11 11 10 11 11 11 12 13 12 13 14 13 13 13 14 17 18 14 12 10 10 10 9 7 11 13 13 12 11 10 10 10 9 10 8 10 11 9 9 10 10 10 11 12 14 17 17 9 7 9 11 10 6 4 5 6 4 8 8 11 10 11 14 19 19 17 15 15 16 14
12 12 12 12 12 11 11 11 11 11 11 11 11 10 10 11 11 10 11 11 11 10 11 12 12 12 13 13 12 13 11 12 11 2 9 11 11 10 9 10 10 10 13 15 12 11 10 11 10 9 9 10 8 12 10 8 7 7 10 11 11 13 13 10 6 9 8 7 10 10 7 6 10 5 2 7 9 11 11 12 12 20 23 21 19 16 14 16
12 13 12 12 12 12 12 11 11 11 11 11 11 11 10 10 11 11 11 11 11 11 11 11 12 13 12 13 13 11 10 8 7 9 7 9 10 11 9 8 8 11 13 12 12 12 12 10 9 9 9 9 11 11 10 11 11 9 11 13 15 15 14 9 10 4 5 4 7 9 10 8 9 4 9 11 9 7 8 10 12 22 22 22 21 18 16 16
13 13 12 12 12 12 12 12 11 11 11 11 11 11 10 10 10 11 11 10 10 11 10 10 10 11 13 12 11 10 6 2 2 5 8 7 8 8 9 7 6 8 12 13 13 10 8 8 10 8 8 10 11 11 10 13 9 10 11 13 11 13 14 10 6 7 7 6 8 10 12 11 4 9 9 9 6 8 14 18 14 15 13 18 17 17 13 9
13 13 12 12 12 12 12 11 11 11 11 11 11 11 10 10 10 11 11 10 10 10 10 10 10 11 12 13 12 8 8 10 4 5 10 7 7 8 6 6 3 8 11 12 12 10 8 10 10 10 9 10 13 13 13 11 14 13 10 9 13 14 16 13 8 6 9 5 9 10 11 10 9 10 7 11 8 4 19 20 16 16 8 12 12 9 13 15
14 13 12 12 12 12 12 12 12 11 11 11 11 11 10 11 11 10 11 10 10 11 10 10 9 10 11 10 7 7 9 9 7 8 8 9 8 8 5 8 9 9 11 12 11 11 8 11 11 9 11 10 8 13 12 14 14 11 11 13 15 13 6 8 8 7 7 9 8 11 10 9 11 11 6 5 9 7 10 16 13 14 12 9 10 11 8 9
14 13 12 13 13 12 12 11 11 11 11 11 11 11 11 10 11 11 10 10 10 10 10 9 9 9 8 8 7 8 6 3 8 11 12 11 11 10 10 8 11 11 11 12 13 10 9 8 12 10 9 12 11 11 9 7 6 10 14 12 12 14 12 9 10 11 13 8 7 11 12 12 13 11 10 8 6 6 15 15 13 12 9 9 10 10 10 8
14 14 13 13 13 13 12 11 11 11 11 11 11 11 11 11 10 10 10 10 10 10 9 9 9 9 10 6 8 8 3 4 10 10 11 11 11 10 12 10 12 12 12 11 10 11 11 8 10 7 11 14 12 8 10 8 8 3 8 12 14 13 9 10 12 12 8 8 11 12 11 12 11 4 8 9 6 11 16 13 11 10 9 9 9 10 8 9
14 13 13 13 13 13 12 12 12 11 11 10 11 11 12 11 11 11 11 11 10 10 9 8 8 9 7 6 7 7 4 4 7 9 9 10 11 11 11 11 11 11 12 9 10 9 10 9 8 4 6 7 7 11 9 10 10 11 8 11 10 10 11 13 12 9 6 9 12 10 12 12 8 6 9 7 9 9 14 13 7 8 7 8 10 7 6 7
14 14 14 13 13 12 12 12 12 11 11 11 11 11 11 11 11 11 11 11 10 10 9 8 7 5 7 9 9 8 1 2 4 8 8 9 9 11 11 12 11 11 10 8 8 10 8 8 7 8 6 6 9 6 11 13 10 10 8 10 12 14 13 14 15 12 10 11 10 10 13 10 7 12 5 10 15 12 7 9 12 11 10 10 9 8 5 4
15 14 14 13 13 12 12 12 12 12 11 11 11 12 11 11 12 11 11 11 8 8 7 6 7 6 7 8 11 10 2 3 2 7 8 8 9 10 9 8 10 11 11 8 9 7 5 7 8 10 9 8 8 7 9 7 7 7 10 11 12 12 14 16 13 13 12 11 11 9 9 10 11 10 8 6 10 10 8 9 11 12 9 8 8 7 7 6
15 13 13 13 13 12 12 12 12 11 12 12 11 11 12 11 12 12 11 12 11 10 9 7 6 6 6 7 3 4 2 1 5 7 8 8 10 10 7 6 7 7 6 10 11 2 5 5 9 10 9 12 10 9 8 8 7 9 11 9 9 10 11 14 11 12 13 8 11 8 9 8 12 12 12 5 10 15 13 11 11 10 9 9 6 5 5 5
14 13 13 12 12 12 12 12 11 11 11 12 11 11 11 12 11 11 11 11 11 10 9 6 6 5 6 6 6 7 5 4 7 8 9 10 11 8 9 7 8 8 8 6 7 3 5 7 8 9 9 9 10 10 9 9 8 9 8 10 10 11 11 13 9 10 10 10 7 8 8 10 8 14 10 7 4 8 15 13 10 9 9 11 7 6 4 3
15 14 14 12 12 12 12 11 11 11 11 12 11 11 11 13 12 11 12 11 12 9 6 6 8 9 9 11 4 9 6 9 9 8 9 12 10 8 8 9 7 9 6 7 6 3 5 8 9 7 10 10 11 8 9 8 8 9 9 7 11 11 4 9 12 11 11 8 13 12 9 10 10 7 6 7 9 7 12 16 13 13 13 12 12 7 5 5
15 14 13 12 11 11 11 11 10 11 11 11 11 11 11 13 13 11 11 10 8 7 6 5 2 10 5 5 4 8 8 11 7 9 9 11 10 10 8 9 8 7 6 7 6 5 7 8 6 9 9 9 8 8 8 8 8 8 8 8 8 12 9 6 14 9 9 10 9 12 12 8 4 3 4 8 7 8 13 18 18 12 12 10 11 10 8 7
15 14 13 12 12 11 10 10 10 11 11 11 10 10 9 9 8 6 7 8 6 7 9 9 9 7 13 14 11 11 9 7 8 8 9 7 10 4 8 8 6 8 8 8 8 9 7 8 6 7 5 7 7 9 8 8 7 2 4 8 8 11 7 6 4 9 8 7 9 10 11 10 12 8 9 6 7 9 9 16 14 14 11 12 11 10 13 14
15 14 13 12 11 10 10 10 10 10 11 11 14 13 14 13 7 6 6 5 5 4 5 7 6 8 8 11 13 10 10 10 7 7 10 8 7 7 7 8 7 8 8 7 7 10 7 7 6 7 8 8 9 12 6 7 12 8 12 8 6 5 5 9 5 9 5 12 11 10 8 11 10 8 10 8 6 8 7 9 14 15 14 12 13 12 12 11
16 14 13 12 11 11 10 9 9 10 9 8 6 6 4 3 4 3 7 9 12 12 8 1 16 13 8 9 8 7 6 8 9 8 8 8 6 8 11 8 8 8 8 7 8 9 4 8 7 7 7 3 7 7 7 7 10 10 13 10 4 6 8 6 6 9 7 7 6 11 14 14 10 9 9 6 7 10 5 7 12 13 14 13 11 11 13 13
17 14 13 11 10 9 10 9 8 8 6 6 7 6 6 8 6 3 2 10 15 16 18 16 15 18 8 0 9 8 8 9 9 9 11 8 11 7 9 8 8 8 8 11 9 6 5 8 9 12 2 4 5 8 7 7 7 9 9 8 7 6 6 4 4 8 3 4 6 9 10 7 8 9 6 7 10 4 5 10 4 10 16 11 13 13 13 11
18 15 12 11 10 9 9 8 7 8 6 6 6 7 10 7 4 3 7 9 11 18 18 16 12 14 7 11 6 7 8 7 11 10 10 11 10 11 10 10 9 10 8 7 8 3 7 8 9 13 2 0 3 6 8 7 9 9 8 8 7 9 8 9 11 2 3 4 5 7 10 10 12 8 6 6 6 2 5 6 7 7 10 11 13 16 12 13
18 16 13 10 9 8 6 6 6 3 5 5 6 11 11 7 6 7 8 9 14 13 16 16 13 12 10 9 6 5 11 12 10 13 12 11 10 12 8 9 9 10 10 10 8 7 8 10 13 11 6 2 4 5 6 7 7 7 7 7 8 9 9 4 5 4 4 2 4 6 10 9 13 3 6 8 9 6 5 9 9 8 8 8 6 20 14 15
18 17 13 10 9 7 6 5 5 5 8 12 12 14 10 5 6 8 7 6 8 9 13 14 13 11 13 11 10 11 13 10 11 14 13 11 11 10 11 12 11 8 10 14 11 9 12 2 10 9 3 0 4 4 5 5 7 7 9 10 10 10 9 8 7 3 7 7 4 11 9 9 7 4 8 9 9 7 9 11 10 9 9 5 3 17 15 10
18 17 14 10 7 6 5 4 4 8 9 11 13 15 8 5 4 7 7 7 9 10 10 12 9 11 11 8 6 12 11 10 13 11 13 12 13 11 11 8 8 10 11 10 9 9 12 8 4 4 2 5 3 6 7 8 8 8 10 13 11 11 11 9 2 5 3 7 9 8 7 8 8 9 10 9 8 10 10 9 8 8 7 7 7 13 11 14
19 17 14 10 7 3 2 3 6 8 11 11 9 2 4 7 7 6 6 4 6 6 11 11 8 10 8 14 6 10 7 11 8 7 14 12 11 13 6 9 6 10 10 7 12 8 4 4 5 5 4 5 7 8 9 8 8 7 5 6 10 11 10 8 9 6 6 6 2 8 7 4 5 9 10 12 11 11 7 6 8 8 6 7 6 11 15 10
18 16 13 10 6 1 4 3 10 15 9 2 4 2 4 6 6 7 5 5 6 5 8 5 11 1 6 10 10 6 10 7 7 11 11 11 12 8 10 9 8 7 10 6 4 6 7 5 3 5 6 7 9 8 8 10 8 7 6 9 7 7 9 9 9 9 9 7 4 5 6 7 7 8 8 5 8 10 11 11 8 9 10 9 8 8 9 16
17 17 15 10 6 7 4 9 12 11 11 8 8 9 8 7 6 3 4 2 3 8 11 8 4 4 10 11 12 11 8 4 11 11 5 11 11 6 10 12 11 7 10 7 8 4 5 6 5 7 6 8 9 9 7 10 8 4 3 6 8 9 9 9 9 9 8 6 8 7 9 8 8 8 7 7 8 8 5 5 7 9 10 11 10 11 11 11
17 16 14 11 7 10 9 6 8 12 10 11 6 7 6 6 6 4 1 4 3 6 6 10 2 7 7 11 13 14 11 8 9 7 9 8 11 9 9 12 11 12 13 9 9 3 1 8 3 8 8 8 9 13 8 6 6 7 9 4 8 11 10 8 7 8 7 6 8 9 7 9 7 6 7 7 7 7 7 12 9 8 6 6 8 4 3 9
17 15 15 10 5 5 6 6 9 13 12 9 7 7 7 5 5 4 3 6 4 6 10 4 9 10 10 10 11 14 15 5 9 9 10 8 11 13 13 14 11 10 8 4 9 7 5 1 4 8 7 9 10 11 9 7 7 2 5 9 9 10 10 8 7 7 6 8 9 10 11 9 8 5 2 4 7 10 5 5 8 9 7 4 6 5 5 1
16 14 12 6 5 3 3 6 10 14 12 6 8 9 5 4 4 2 5 3 4 5 6 7 10 10 14 14 10 13 13 10 13 10 9 8 10 11 9 10 9 9 6 7 8 10 11 12 7 7 9 10 9 12 5 2 8 8 5 7 8 8 6 6 6 6 6 7 8 11 12 11 9 5 2 4 4 5 5 5 7 3 2 7 7 4 4 4
19 13 8 6 8 8 5 6 10 8 8 7 7 7 4 5 6 7 4 6 8 5 10 7 11 11 14 13 12 10 11 13 11 8 10 8 9 9 9 9 4 6 7 6 6 5 9 10 6 10 9 8 8 8 7 8 9 8 8 8 7 5 3 5 6 6 5 5 5 5 11 9 10 7 2 8 5 5 5 5 1 7 5 9 5 5 4 4
25 17 13 11 10 7 11 12 8 7 6 6 6 5 6 4 7 8 10 7 4 4 7 10 7 10 11 14 13 11 12 11 11 11 12 9 8 10 11 12 9 7 6 2 7 5 7 10 11 10 8 10 7 7 7 9 7 8 8 6 4 5 4 6 5 2 7 8 7 4 7 6 1 2 9 8 6 8 7 6 6 6 9 5 5 4 4 2
26 19 8 6 9 10 8 9 7 7 7 6 6 5 6 6 8 9 13 9 10 6 8 7 9 11 12 11 10 9 9 11 8 9 9 8 9 7 8 11 12 10 6 4 5 5 5 6 8 9 6 8 6 8 9 8 3 7 9 6 6 6 6 4 5 6 5 5 5 4 3 2 6 2 9 9 9 7 5 4 5 5 5 2 3 2 6 9
28 18 8 6 8 10 13 12 9 7 5 6 6 7 7 8 8 10 9 8 8 6 8 6 10 7 11 11 7 10 10 8 12 10 10 9 9 9 9 8 9 9 6 6 5 5 10 8 5 10 6 7 6 6 8 8 9 6 4 5 6 5 5 9 4 5 7 4 5 4 3 5 5 6 7 4 6 5 6 7 5 5 5 5 4 4 7 8
18 2 6 5 7 9 11 10 10 8 6 7 7 7 9 8 7 8 5 10 6 6 8 10 10 10 8 6 7 11 15 10 9 9 7 10 9 10 10 7 9 10 7 6 2 5 2 7 7 5 5 5 7 10 7 3 6 2 5 6 5 3 7 3 4 7 5 4 7 4 4 9 4 5 6 8 6 8 8 8 8 7 8 6 6 7 8 8
7 8 6 8 12 11 10 10 7 7 7 7 7 8 9 10 13 14 7 8 7 6 7 9 6 8 7 7 7 7 6 10 7 7 8 6 8 11 7 7 6 4 8 5 5 4 5 5 3 8 10 11 12 6 8 9 6 7 7 2 3 6 7 5 5 1 3 5 4 3 4 9 8 3 9 9 8 10 8 9 10 10 9 9 8 8 8 9
9 7 10 13 13 10 9 7 6 6 7 8 8 11 10 13 11 13 11 8 6 7 9 6 4 7 8 8 8 7 9 8 7 10 10 7 6 1 7 5 6 7 7 2 4 1 0 7 8 10 8 12 5 3 9 11 11 10 9 2 5 1 4 3 2 5 5 5 4 4 8 9 6 5 7 9 9 5 7 8 11 9 10 9 9 9 9 9
8 7 8 11 14 8 8 4 5 7 8 9 8 9 10 14 15 16 10 11 7 11 9 8 9 6 8 9 8 8 11 9 8 9 7 7 8 4 7 2 4 4 3 8 5 5 5 5 5 6 13 7 7 5 6 5 8 15 9 10 8 6 4 5 3 6 3 5 4 5 8 3 3 2 4 8 7 3 4 6 9 9 11 10 8 8 9 8
6 6 9 7 8 9 7 5 6 7 9 10 10 10 9 13 12 16 11 5 7 8 8 12 9 10 10 11 9 8 7 11 7 7 10 4 3 6 9 6 6 5 4 2 7 3 3 0 6 4 9 8 7 3 6 3 7 7 7 7 6 5 3 6 4 6 6 5 5 5 5 1 3 5 3 5 1 5 5 6 6 8 11 10 9 8 8 8
7 7 4 4 7 6 5 6 7 9 10 10 13 13 12 12 11 10 8 4 6 8 12 9 8 7 7 8 8 9 8 9 8 9 7 5 6 4 9 9 8 8 7 4 7 4 3 3 5 7 8 7 8 5 8 7 6 6 5 4 6 5 2 6 6 4 6 5 5 5 5 4 4 6 3 6 4 5 3 5 7 12 10 10 9 8 8 7
6 6 4 7 7 7 7 8 8 8 8 11 10 9 10 3 9 11 6 4 8 8 8 10 10 10 7 7 7 8 9 8 8 10 8 8 4 7 7 2 3 3 4 2 3 6 2 3 6 5 7 8 9 12 11 9 7 9 7 7 6 8 5 4 6 3 5 5 7 7 5 1 2 2 3 7 4 2 5 3 10 10 10 10 9 9 8 8
6 8 8 10 9 8 7 8 9 7 10 10 12 15 16 12 9 9 12 10 10 7 8 8 7 6 7 8 6 7 7 8 8 9 7 7 4 13 7 2 6 3 1 4 9 5 4 1 5 10 10 12 13 13 16 10 5 8 9 9 10 10 8 9 7 6 7 7 7 4 5 2 4 3 6 3 7 9 8 7 10 9 8 9 10 9 9 9
8 7 4 7 9 8 8 7 7 7 9 12 14 14 12 12 9 10 12 11 8 7 8 7 6 7 10 6 7 8 6 5 4 8 7 8 3 3 11 4 3 2 3 3 2 5 3 2 7 7 7 8 9 9 11 11 9 5 5 5 8 10 11 9 9 6 7 7 8 7 8 2 2 4 4 5 2 4 7 9 8 9 8 8 9 8 8 8
9 7 9 5 8 6 9 8 9 7 10 11 11 14 13 11 6 10 11 10 9 9 6 6 7 8 7 6 10 7 7 8 7 7 10 9 2 3 8 2 7 5 9 8 7 3 2 4 4 5 5 6 4 3 2 3 5 4 5 7 5 8 11 8 3 4 6 5 7 6 5 5 4 4 1 2 1 2 2 2 7 11 8 9 7 7 7 7
4 4 3 8 7 7 8 9 11 9 7 9 7 8 8 9 10 9 4 11 11 8 7 8 7 6 7 8 8 7 8 8 9 5 7 7 4 6 7 4 2 7 8 8 4 2 4 5 7 7 8 8 9 10 9 8 7 7 8 11 11 9 10 6 4 4 6 5 7 7 8 2 6 3 6 3 6 5 3 5 4 7 7 4 5 6 5 6
6 6 4 4 8 5 8 8 9 9 7 7 6 6 10 11 10 9 7 5 7 8 7 8 9 8 5 6 7 9 9 9 10 11 9 10 7 4 9 1 4 10 7 3 1 2 3 4 8 11 13 14 15 16 15 15 14 13 13 13 13 13 9 8 5 7 5 6 9 5 7 9 9 12 11 5 3 5 7 3 2 5 6 5 5 4 6 6
4 4 4 7 4 4 5 3 11 7 8 6 7 7 6 7 6 7 3 4 10 6 4 7 9 9 10 10 7 6 7 9 9 7 11 8 9 7 4 7 5 8 3 3 3 5 5 5 9 11 14 15 15 15 15 14 14 14 15 14 14 14 14 10 4 9 11 7 11 8 9 12 13 10 8 10 11 5 5 3 4 2 4 9 7 6 6 6
7 6 6 12 5 6 4 8 8 9 10 6 5 5 6 8 9 7 7 4 4 8 7 4 7 9 11 10 9 8 4 4 3 9 8 9 8 7 7 4 4 8 4 3 6 4 4 5 9 10 13 13 14 14 13 14 12 14 14 14 14 14 13 13 14 13 14 13 13 13 12 10 13 12 9 9 9 9 8 7 3 6 9 7 8 8 7 8
8 8 7 11 8 8 4 6 6 6 8 1 1 6 4 4 5 8 7 5 3 8 8 8 10 10 11 13 7 3 7 4 6 4 7 9 6 4 6 5 4 5 7 4 3 4 3 1 3 6 8 10 11 13 13 14 14 15 16 15 14 13 15 14 13 11 11 11 12 13 13 10 9 9 13 9 8 10 10 10 9 8 8 8 9 12 12 9
8 7 6 8 8 6 6 8 6 5 4 6 3 7 5 7 4 3 5 3 1 4 7 8 10 12 10 8 6 8 8 7 6 7 7 7 4 4 3 3 4 6 6 6 5 2 4 4 5 6 6 7 10 12 12 13 14 15 15 12 13 13 11 10 7 8 8 8 9 10 10 6 6 8 11 11 11 12 12 11 12 11 13 12 10 11 9 9
9 8 9 7 6 6 7 7 3 6 2 6 6 6 5 5 8 5 5 9 6 5 4 9 10 8 8 6 9 8 8 5 6 6 8 8 7 8 5 7 8 7 4 6 4 7 4 4 5 4 8 9 10 10 12 11 11 12 9 8 14 15 15 15 14 12 10 9 7 8 8 9 11 10 13 9 9 14 13 7 8 12 14 10 10 10 12 11
Wind_Direction
323 321 323 321 321 319 317 317 316 316 316 315 312 312 307 309 304 306 307 307 305 301 300 305 310 311 311 314 314 317 317 303 300 286 256 244 229 108 91 107 145 165 185 231 232 239 216 222 223 227 235 232 223 239 246 232 243 242 229 241 252 260 254 254 256 256 251 288 138 60 65 38 285 331 309 53 255 255 269 253 103 105 86 89 129 133 136 138
324 322 323 324 320 319 318 317 316 315 314 313 312 310 309 307 309 304 305 305 304 301 302 307 308 310 312 312 316 319 316 296 289 277 257 253 146 141 132 153 180 187 186 228 231 221 224 209 225 216 232 229 218 236 219 236 206 231 238 241 249 243 252 262 252 254 354 327 343 19 260 193 250 339 302 268 259 235 240 239 127 103 93 96 114 128 135 136
324 323 319 318 319 318 316 313 316 315 314 313 313 314 314 309 305 304 301 302 302 302 300 301 305 308 312 315 315 314 302 299 278 260 254 160 152 151 153 171 186 197 200 216 222 230 224 223 209 223 220 246 213 236 207 228 187 220 258 242 237 248 274 278 283 294 325 329 301 321 340 354 292 264 27 261 268 285 249 241 143 122 124 131 134 138 142 145
320 320 320 319 319 317 316 313 312 314 313 316 316 315 311 307 304 303 299 297 300 302 302 299 304 311 312 311 319 314 296 292 272 243 97 127 142 156 168 163 187 200 220 234 242 244 231 251 253 218 232 231 234 241 211 218 216 192 228 245 256 251 247 265 322 8 335 311 303 307 328 297 281 262 316 318 286 253 265 240 208 136 136 139 142 149 152 153
321 321 321 320 316 315 315 315 312 314 313 312 313 313 310 308 306 302 303 303 300 303 302 300 303 307 311 308 313 295 301 277 85 91 130 143 155 162 163 182 184 212 214 232 245 256 252 245 250 242 235 238 246 226 235 224 211 255 224 234 248 268 282 281 281 226 246 347 324 305 294 291 286 325 256 240 251 272 266 20 340 149 145 140 147 152 159 159
321 318 317 316 316 315 312 312 313 312 312 313 314 313 311 308 308 306 301 295 295 296 294 301 305 308 306 316 301 286 280 40 74 103 142 164 150 157 165 189 205 231 217 230 248 250 237 239 241 232 222 246 249 242 207 234 219 231 252 264 281 287 283 309 298 12 31 275 258 259 254 256 291 283 279 289 280 274 37 53 96 112 135 137 137 143 148 127
319 318 316 316 314 313 313 311 312 311 309 310 310 311 310 307 309 308 304 301 296 295 300 304 307 308 315 301 268 261 261 274 300 130 118 158 153 150 166 205 189 222 235 243 243 230 210 238 224 226 228 237 242 250 244 210 227 242 249 241 236 233 250 253 291 268 244 236 260 270 280 273 276 270 262 240 203 223 76 85 95 103 112 122 124 109 124 139
317 316 317 314 313 314 313 311 308 308 307 307 305 307 308 307 307 308 305 301 297 295 299 302 306 312 326 308 279 225 228 260 120 122 144 145 161 162 164 205 206 210 228 238 241 231 210 233 221 224 242 238 227 229 233 242 235 223 233 256 275 287 310 307 284 283 282 262 260 263 257 259 255 257 264 254 266 162 128 106 107 116 121 112 112 117 125 133
316 315 317 313 312 311 309 305 304 306 306 306 306 304 303 303 302 304 306 302 298 296 296 303 311 312 307 282 290 298 267 130 104 132 154 158 152 170 185 185 200 206 221 236 236 235 229 219 243 237 237 222 244 270 273 234 235 240 249 263 258 249 242 240 246 248 246 249 242 241 239 247 249 250 263 266 213 116 102 105 113 120 132 136 130 131 134 131
316 315 314 312 309 309 308 306 304 305 310 306 304 303 299 300 299 297 299 300 297 295 298 303 306 312 292 273 275 268 104 144 119 146 156 151 154 164 196 196 181 216 230 229 227 242 231 229 240 219 262 281 294 295 266 224 254 21 293 239 248 263 261 240 248 250 225 223 241 238 241 239 238 215 246 232 133 118 113 121 139 129 154 164 145 138 137 147
316 314 313 311 309 308 308 306 306 307 306 305 300 300 301 300 299 298 297 296 297 296 298 298 308 304 287 266 278 270 40 273 136 139 160 157 160 177 199 220 191 219 235 221 250 226 235 258 299 262 280 265 269 245 239 254 247 256 255 275 276 272 263 270 268 253 245 236 235 236 245 250 208 181 253 166 103 77 114 133 152 150 171 158 147 124 135 165
315 315 311 310 309 307 308 306 307 308 304 302 301 299 299 295 294 291 291 292 293 292 290 294 296 282 277 272 250 269 341 116 196 154 160 175 177 191 195 218 213 226 230 229 221 233 280 281 335 254 263 34 252 284 231 226 259 256 269 265 252 248 249 235 238 236 219 247 222 223 256 236 202 235 207 130 112 136 132 138 154 157 169 145 119 100 93 71
317 314 313 308 308 308 306 306 306 304 302 301 302 299 296 296 293 291 288 287 281 283 276 272 273 260 284 279 242 231 258 113 167 156 174 191 193 207 216 232 216 232 251 253 213 232 243 268 273 272 264 267 283 275 13 314 228 270 259 255 262 256 243 226 216 232 224 236 205 190 241 229 202 221 147 138 139 159 160 159 155 151 170 121 117 114 123 126
318 312 311 309 305 307 306 303 303 302 301 301 298 296 296 294 292 290 286 280 284 285 283 276 274 270 270 259 305 151 186 268 144 196 190 192 211 203 234 234 246 255 268 282 312 105 243 227 268 274 293 274 261 335 289 237 247 249 245 229 248 257 245 213 188 210 223 204 171 181 246 237 202 187 176 167 186 157 147 184 152 146 142 121 119 127 123 135
319 316 310 310 307 304 303 302 300 299 299 297 297 297 294 290 289 284 280 276 264 268 267 263 240 258 223 253 226 113 22 265 188 192 184 190 215 196 211 200 223 232 239 263 267 250 252 267 261 250 244 242 263 266 250 239 217 232 241 227 233 246 256 147 173 183 230 135 171 214 249 263 223 202 125 132 225 206 167 153 134 144 138 129 130 128 123 107
324 320 314 307 307 302 301 300 299 299 297 298 295 298 296 286 279 275 270 268 284 300 257 244 222 227 296 278 147 123 180 211 202 188 179 203 204 202 188 195 200 222 221 214 272 276 236 248 240 249 264 246 241 248 253 241 217 220 237 246 240 228 197 140 186 186 218 175 187 219 243 231 234 156 143 158 230 212 121 137 158 162 159 148 139 146 147 110
327 319 314 308 305 304 300 298 300 302 299 296 301 285 278 278 265 264 262 264 261 230 226 255 256 187 258 79 140 192 193 221 173 183 181 227 201 171 176 186 200 205 199 236 222 233 230 234 224 249 243 270 237 241 253 248 236 213 208 252 255 263 147 214 151 212 217 231 174 202 240 260 60 112 126 163 207 212 142 165 153 166 155 158 143 150 151 134
328 323 316 314 304 304 301 297 301 300 301 299 291 291 292 303 300 268 243 243 238 235 232 246 271 288 243 258 239 216 196 193 166 187 183 207 256 174 191 200 187 218 194 219 201 238 191 233 221 258 233 223 234 241 243 246 252 303 267 222 220 250 216 212 189 162 224 163 255 192 231 241 125 145 180 209 234 238 185 157 158 149 160 155 158 157 155 162
332 325 319 313 308 301 303 300 298 300 300 303 284 278 275 267 260 234 257 177 201 175 221 197 193 204 357 184 224 193 198 144 200 181 187 213 197 237 205 228 205 204 210 229 177 228 182 244 237 250 243 219 223 228 249 344 352 340 322 288 267 271 270 272 221 117 203 166 221 248 212 234 174 183 206 183 177 238 232 154 150 155 162 161 163 167 163 159
336 326 321 315 310 303 298 299 295 295 309 301 270 230 227 215 178 198 207 222 232 237 285 160 193 219 244 158 189 105 98 130 201 193 190 210 195 216 212 213 217 225 237 234 176 218 189 243 235 232 226 299 359 2 30 319 343 324 315 307 257 261 243 182 118 149 182 297 251 206 232 236 217 199 182 202 201 198 240 213 160 155 166 170 172 166 156 163
337 332 320 317 309 309 299 298 294 290 299 280 288 272 270 355 328 57 165 224 224 244 256 260 206 230 260 131 124 147 187 179 232 180 220 158 226 208 202 215 224 217 226 241 248 138 212 247 252 256 290 21 23 340 351 335 303 328 306 302 272 237 261 125 186 100 145 288 275 292 282 251 253 233 238 175 216 210 173 273 279 164 167 180 175 172 168 155
343 333 329 319 315 304 302 295 297 294 296 276 263 257 273 9 351 342 300 288 240 224 234 249 242 235 226 272 135 211 177 196 199 201 202 180 198 225 155 215 205 229 205 222 245 183 227 239 252 251 161 300 318 0 335 318 306 288 279 280 277 275 268 98 89 299 132 183 267 261 260 252 224 221 272 284 260 188 213 234 248 233 210 207 183 174 158 150
345 341 328 325 316 307 297 296 293 351 272 225 234 245 262 337 336 345 312 279 275 261 229 224 233 239 251 221 229 219 238 209 199 188 186 193 202 224 198 201 216 236 222 204 228 222 239 235 242 236 87 2 304 293 294 320 301 281 271 246 254 267 261 170 184 152 292 232 268 257 280 324 303 241 279 248 235 225 227 234 239 253 234 217 202 161 155 158
346 343 337 324 316 306 292 315 299 235 233 234 254 269 299 336 340 329 329 275 289 256 225 216 226 223 228 210 192 220 229 208 227 182 166 189 224 194 243 241 246 225 253 198 207 255 266 136 91 78 58 126 303 285 276 265 259 240 248 269 269 269 265 274 82 25 350 331 294 286 285 278 266 208 229 245 201 195 218 235 237 231 238 238 137 148 141 163
343 345 337 327 313 300 299 274 239 225 220 224 245 262 285 339 353 354 315 286 235 247 231 223 220 213 213 222 163 220 202 262 249 181 165 190 211 216 214 228 253 243 238 262 205 231 249 354 79 105 142 245 231 272 241 246 261 257 230 238 264 284 302 307 295 159 198 249 222 229 255 250 242 228 235 236 196 201 219 230 228 239 220 221 196 145 136 155
341 341 343 325 306 320 20 257 237 250 230 239 259 203 324 330 26 344 306 273 283 271 153 225 158 201 211 177 183 225 230 237 232 201 160 188 225 233 198 230 221 252 233 271 254 215 125 152 273 281 278 270 262 265 267 231 252 256 304 328 245 262 281 274 270 255 251 252 201 187 257 264 232 254 230 221 228 205 217 224 223 229 225 232 209 150 144 159
338 339 335 325 297 160 241 273 341 316 274 343 55 360 319 344 30 326 272 250 266 213 200 110 179 195 275 162 200 189 219 218 189 132 169 163 232 193 267 262 188 270 309 319 289 202 253 195 107 271 269 254 263 247 230 249 241 260 17 262 293 273 260 259 259 266 271 276 280 176 226 262 265 257 279 317 225 194 198 205 224 214 207 211 208 198 163 160
335 335 333 321 283 204 305 320 313 301 302 10 314 356 331 23 339 263 266 293 255 178 196 153 271 125 223 163 207 205 242 120 191 151 221 153 233 190 242 259 274 229 196 211 260 72 280 159 185 263 242 265 252 250 250 215 240 246 151 323 279 272 269 268 267 248 250 269 265 230 234 247 247 264 252 191 252 186 153 275 209 239 212 189 195 201 192 186
335 334 334 325 278 245 264 278 302 281 287 311 349 322 357 357 301 299 284 265 91 208 29 184 125 201 220 176 202 222 222 156 240 139 188 220 195 259 215 227 249 274 286 226 242 182 305 281 277 222 261 246 235 254 244 304 259 243 280 328 282 286 287 269 258 267 259 249 250 254 235 260 251 249 256 194 208 241 202 201 197 229 233 194 196 171 89 115
332 334 330 320 262 234 241 226 241 255 273 296 348 337 311 274 261 239 217 256 158 214 183 105 195 184 212 195 208 206 239 190 229 162 179 219 178 223 268 304 300 275 231 191 252 274 230 141 321 311 245 243 255 239 234 203 257 307 238 273 269 241 236 239 249 270 274 252 254 250 259 263 268 243 198 286 200 216 215 227 194 191 214 163 87 79 68 78
325 328 329 303 239 269 223 231 230 240 250 345 351 320 290 255 258 246 243 270 206 243 146 154 201 184 192 214 202 199 225 221 230 148 198 183 221 211 244 234 244 278 295 271 236 253 250 169 188 228 258 282 294 294 336 276 263 279 265 250 259 248 244 254 258 235 252 251 253 253 247 241 256 233 169 49 62 102 73 276 143 149 349 81 98 165 167 194
323 315 298 237 263 326 276 279 350 324 2 342 323 290 249 260 228 235 235 324 283 157 213 182 223 189 198 207 230 184 208 212 238 185 228 182 222 196 199 259 174 247 243 237 245 235 271 273 231 198 202 252 258 266 266 238 218 227 244 257 260 263 258 253 222 245 249 268 244 303 296 244 221 265 248 138 227 174 133 158 156 141 198 97 123 58 55 57
320 315 292 239 250 252 255 265 299 331 324 324 299 267 253 246 257 233 241 246 203 240 199 250 203 203 203 205 225 198 202 238 190 225 219 200 222 203 221 228 178 222 277 186 268 235 242 253 270 265 184 183 243 260 240 221 198 228 220 235 251 255 251 264 258 221 252 242 349 300 352 272 325 211 270 188 174 191 162 111 159 147 101 136 107 170 173 123
315 312 303 204 209 233 265 294 302 311 327 300 274 259 247 258 249 275 273 224 243 176 291 248 219 211 216 219 209 205 205 228 229 214 209 208 216 223 223 227 238 208 212 270 236 239 263 223 220 251 215 151 204 241 284 308 204 231 269 229 212 242 257 259 257 263 258 289 251 170 342 255 262 110 312 92 96 89 97 149 91 70 108 156 208 99 79 66
309 296 230 243 226 243 243 255 268 274 277 282 262 251 243 242 257 259 247 258 243 279 266 247 268 223 224 231 213 197 244 194 214 224 209 226 211 223 205 238 231 250 206 252 202 277 255 247 254 201 238 133 257 231 239 281 301 291 239 262 245 231 209 250 286 311 325 325 289 217 237 325 125 266 40 85 115 135 161 112 122 167 157 133 101 88 76 83
305 284 158 226 221 230 220 226 229 233 253 264 265 247 239 241 252 235 250 341 293 234 254 250 248 242 239 236 218 233 179 264 167 241 238 228 230 223 209 205 230 203 234 227 256 252 236 277 245 161 245 268 223 258 264 157 266 76 307 268 284 331 286 293 261 263 259 232 257 254 241 227 110 212 163 189 181 151 155 142 166 151 117 111 101 94 94 94
315 311 230 237 234 227 215 211 210 203 228 255 260 253 248 250 249 260 274 276 309 308 263 263 211 251 245 224 233 220 192 195 225 215 236 236 239 248 210 198 199 152 229 284 291 241 274 274 110 195 204 208 234 284 304 283 279 276 252 236 332 260 252 250 276 274 249 263 268 226 225 258 233 194 209 186 183 157 181 162 148 110 111 104 95 92 95 95
305 289 293 274 257 223 186 193 226 230 242 250 247 256 270 274 271 284 293 278 283 248 269 260 272 227 251 243 217 218 225 227 205 219 254 170 270 154 251 228 157 238 293 323 261 98 244 282 269 283 290 275 235 143 260 256 259 271 267 355 230 233 251 221 262 262 267 252 273 258 267 260 247 262 188 182 181 194 192 167 129 147 127 115 106 101 99 94
269 275 271 250 243 165 164 170 223 232 233 239 248 248 243 251 267 273 294 328 330 303 277 238 250 208 256 267 272 220 235 223 210 243 242 185 227 73 282 315 174 216 264 267 253 273 225 256 267 261 272 262 207 198 255 273 230 223 239 271 272 278 242 266 213 269 262 273 263 267 268 274 315 67 307 176 177 23 276 186 149 149 125 121 116 110 102 96
260 257 253 228 176 140 137 165 224 234 236 243 240 247 262 272 261 254 249 206 257 252 241 286 268 268 222 232 253 263 243 263 240 248 243 127 208 142 253 169 266 186 197 248 284 315 287 358 279 281 281 304 266 214 259 274 292 291 219 237 252 245 293 279 273 257 255 269 267 284 269 104 312 51 32 2 165 143 285 269 141 137 120 111 111 108 101 97
299 275 284 75 128 131 145 204 225 227 235 242 248 261 262 262 272 280 279 240 281 277 292 291 302 293 312 282 253 250 255 239 251 265 275 250 215 198 212 238 192 230 163 224 242 263 274 266 262 279 270 259 276 251 278 293 285 280 280 299 22 300 350 265 257 327 331 320 319 294 283 32 29 56 197 186 138 114 244 238 116 116 114 108 111 105 105 107
279 243 205 131 110 183 187 221 226 233 243 241 243 235 242 48 279 276 281 226 228 268 248 264 270 289 297 276 274 264 264 256 239 236 229 268 228 271 101 95 123 315 341 289 303 74 350 3 292 268 254 264 273 278 267 240 259 278 288 275 254 292 289 277 274 259 250 235 224 269 304 51 318 4 38 338 18 69 222 270 125 118 114 122 122 118 113 112
236 256 102 168 148 200 209 248 245 234 235 250 260 251 257 253 272 272 270 260 257 215 265 259 250 268 251 269 278 270 264 260 271 275 288 257 67 82 83 342 54 123 257 296 293 42 20 259 264 258 274 273 275 273 278 278 238 261 260 267 266 262 267 275 274 279 273 282 291 289 258 157 267 15 328 160 158 165 153 210 145 125 130 131 128 122 123 115
304 294 206 159 167 198 237 237 241 241 245 249 251 269 266 271 263 252 250 256 265 263 245 247 284 256 285 292 281 272 275 297 267 281 267 284 138 71 105 116 157 283 257 28 346 46 292 183 234 276 285 283 271 253 240 245 216 210 269 286 292 292 279 268 280 301 277 272 282 283 273 266 146 295 102 297 76 219 153 157 146 143 143 137 135 132 128 127
301 278 274 203 179 206 229 231 244 253 258 265 264 242 254 250 250 268 289 301 296 285 315 290 289 303 278 276 277 278 278 268 282 257 278 271 110 200 112 271 89 302 44 55 33 18 283 292 283 263 267 270 264 255 281 3 338 319 307 299 285 294 284 279 265 283 276 275 267 265 271 63 136 141 240 254 227 286 271 220 155 148 151 143 132 129 133 126
273 303 240 220 196 198 233 256 272 289 298 287 298 308 286 264 253 238 293 274 287 284 277 314 295 290 301 301 289 288 281 268 264 276 261 263 209 186 169 187 98 78 62 47 37 294 280 282 275 272 273 272 286 305 323 323 302 283 286 290 287 292 311 305 295 282 276 309 291 275 291 250 222 211 213 155 358 292 295 282 244 162 146 108 122 137 135 125
293 275 349 339 342 271 262 222 233 238 250 266 271 260 248 250 263 251 159 277 253 268 292 263 272 275 267 271 282 285 280 280 273 272 254 258 263 330 105 48 164 108 76 22 306 299 266 271 260 265 263 267 280 286 294 295 285 280 275 265 267 268 256 261 253 270 294 296 269 280 304 327 337 343 3 5 197 292 317 313 125 55 115 155 158 187 162 159
323 7 360 33 303 316 317 17 356 329 321 313 279 296 294 291 285 281 231 203 316 301 296 283 268 255 263 263 272 267 276 281 283 278 292 273 272 117 210 121 292 107 132 251 210 232 251 253 251 255 261 268 272 277 283 287 287 288 288 293 296 297 298 280 271 277 285 270 277 295 304 299 299 295 330 322 332 326 283 198 220 290 242 181 181 212 195 187
6 332 1 8 321 300 336 345 316 313 310 314 307 328 291 275 271 265 257 294 336 308 267 275 276 289 285 276 261 265 311 297 305 347 342 310 278 304 282 187 203 138 138 271 267 197 236 250 268 270 278 277 276 277 279 280 284 280 272 268 269 277 279 276 270 267 265 271 284 292 292 288 290 297 303 315 327 324 301 333 312 226 231 223 190 215 220 223
10 353 340 336 321 288 338 319 307 301 282 137 329 263 317 310 296 284 272 273 316 311 315 314 312 318 300 278 280 302 58 24 12 329 349 346 342 270 290 299 295 263 282 261 270 109 188 253 358 305 291 282 283 284 287 288 286 281 285 288 289 279 276 285 287 275 280 278 277 280 282 277 285 306 296 299 310 290 285 279 265 255 262 256 227 217 229 236
341 338 342 311 324 329 331 274 259 289 285 3 321 354 283 265 290 293 281 239 190 319 353 321 333 322 317 320 350 34 54 18 350 6 322 350 298 352 345 331 335 306 283 271 247 173 135 278 307 292 288 278 277 277 276 278 277 282 287 304 318 312 288 271 271 285 275 284 298 302 291 286 307 308 301 279 281 289 279 274 262 254 239 238 244 234 233 237
347 344 323 326 307 315 290 348 298 250 33 350 343 327 313 1 328 350 3 1 335 332 20 351 337 329 307 347 36 9 2 338 331 326 326 313 304 292 283 279 282 280 275 270 263 265 229 258 264 277 279 282 294 297 297 313 309 286 268 268 265 264 272 277 269 271 273 283 268 261 267 288 291 294 282 295 334 328 291 296 332 3 358 321 265 230 223 244